Flag for Canada Weather past 2 weeks in Burlington, Ontario, Canada

Now
37 °F

Chilly.


Feels Like: 33 °F
Forecast: 38 / 54 °F
Wind: 6 mph from North

Location: Burlington Piers


UV Index: 5 (Moderate)

Visibility: N/A


Pressure: 30.40 "Hg

Humidity: 77%

Dew point: 31 °F

Location of BurlingtonLocation

Historic Weather in Burlington

°F

Burlington temperature yesterday

Maximum temperature yesterday: 43 °F (at 12:00 AM)
Minimum temperature yesterday: 34 °F (at 6:00 AM)
Average temperature yesterday: 39 °F

Past Weeks' High & Low Weather Summary

 TemperatureHumidityPressure
High72 °F (Apr 13, 6:00 PM)100% (Apr 15, 6:00 AM)30.55 "Hg (Apr 15, 6:00 AM)
Low25 °F (Apr 16, 5:00 AM)28% (Apr 9, 4:00 PM)29.32 "Hg (Apr 8, 5:00 AM)
Average42 °F68%30.02 "Hg
* Reported Apr 5 5:00 AM — Apr 20 5:00 AM, Burlington, Weather by CustomWeather, © 2014

Note: Actual official high and low records may vary slightly from our data, if they occured in-between our weather recording intervals... More about our weather records

Advertising

Historic Weather Conditions — Data for Previous 24 hours

 ConditionsComfort  
Time TempWeatherWind HumidityBarometerVisibility
5:00 AM
Apr 20
37 °FChilly.6 mph77%30.40 "HgN/A
4:00 AM38 °FChilly.7 mph73%30.40 "HgN/A
3:00 AM36 °FChilly.8 mph87%30.41 "HgN/A
2:00 AM38 °FChilly.2 mph72%30.42 "HgN/A
1:00 AM38 °FChilly.6 mph69%30.42 "HgN/A
12:00 AM41 °FQuite cool.3 mph64%30.42 "HgN/A
11:00 PM
Apr 19
41 °FQuite cool.3 mph62%30.41 "HgN/A
10:00 PM41 °FQuite cool.No wind67%30.41 "HgN/A
9:00 PM41 °FQuite cool.3 mph68%30.40 "HgN/A
8:00 PM42 °FQuite cool.6 mph59%30.40 "HgN/A
7:00 PM42 °FQuite cool.5 mph66%30.42 "HgN/A
6:00 PM40 °FQuite cool.6 mph75%30.43 "HgN/A
5:00 PM40 °FChilly.3 mph73%30.43 "HgN/A
4:00 PM39 °FChilly.8 mph75%30.43 "HgN/A
3:00 PM39 °FChilly.10 mph75%30.44 "HgN/A
2:00 PM39 °FChilly.12 mph76%30.46 "HgN/A
1:00 PM39 °FChilly.13 mph77%30.47 "HgN/A
12:00 PM40 °FChilly.10 mph73%30.46 "HgN/A
11:00 AM39 °FChilly.10 mph76%30.47 "HgN/A
10:00 AM39 °FChilly.7 mph78%30.47 "HgN/A
9:00 AM39 °FChilly.15 mph70%30.46 "HgN/A
8:00 AM38 °FChilly.3 mph69%30.45 "HgN/A
7:00 AM36 °FChilly.2 mph77%30.42 "HgN/A
6:00 AM34 °FChilly.5 mph81%30.39 "HgN/A
Weather by CustomWeather, © 2014

See weather overview